User: anonymous
Location: Fountain Hills
(33.6120°N, 111.7170°W)
Time: 21:23:50
(UTC-07:00)
Language:

Hamsat - Orbit

View from above orbital plane
View from above orbital plane
View from above satellite
View from above satellite

Ground track
Ground track

The orbit data is extracted from the following two-line orbital elements,

1 28650U 05017B   14274.77233609  .00002700  00000-0  31422-3 0  8699
2 28650 097.5643 274.4491 0025562 162.7438 197.4653 14.85843889509051
Epoch (UTC): 01 October 2014 18:32:09
Eccentricity: 0.0025562
inclination: 97.5643°
perigee height: 593 km
apogee height: 629 km
right ascension of ascending node: 274.4491°
argument of perigee: 162.7438°
revolutions per day: 14.85843889
mean anomaly at epoch: 197.4653°
orbit number at epoch: 50905

The dashed part of the orbit path shows where the satellite is in the earth's shadow,  

DLR